Location: Bismarck
(46.7731°N, 100.8200°W)
Time: 23:05:51
(UTC-05:00)

Amateur Radio Satellites - All Passes

Search period start: 26 April 2015 22:35
Search period end: 27 April 2015 22:35
Location: Bismarck, 46.7731°N, 100.8200°W

Satellite Date Start Highest point End Downlink Frequencies (MHz)
Time Altitude Azimuth
YUBILEINY 26 Apr 22:36:58 22:45:41 65° 76° (ENE) 22:54:19 435.215
BRITE-PL 26 Apr 22:37:55 22:39:36 12° 275° (W) 22:41:04 437.365/2234.400
VELOX 1 26 Apr 22:40:20 22:43:45 23° 64° (ENE) 22:47:16 145.980
CUBEBUG 1 26 Apr 22:43:49 22:45:40 13° 60° (ENE) 22:47:43 437.445
CANX-2 26 Apr 22:44:20 22:47:24 18° 270° (W) 22:50:21 2200.000
Cosmos 2499 26 Apr 22:45:44 22:49:00 12° 314° (NW) 22:51:41 435.465 / 435.565
AAUSAT CUBESAT 2 26 Apr 22:47:00 22:50:43 28° 266° (W) 22:54:23 437.432
DOVE 4 26 Apr 22:47:27 22:50:48 21° 270° (W) 22:54:13 437.250
CUTE 1.7 + AOD 2 26 Apr 22:53:36 22:56:25 16° 271° (W) 22:59:04 437.475
50 SAT 26 Apr 22:55:22 22:58:52 30° 69° (ENE) 23:02:28 437.505
AISAT 26 Apr 22:58:05 23:02:02 34° 68° (ENE) 23:06:04 437.250
DX 1 26 Apr 23:03:16 23:07:35 78° 76° (ENE) 23:11:58 434.975-435.025
PHONESAT 2.4 26 Apr 23:04:24 23:06:16 14° 204° (SSW) 23:08:05 2401.200-2431.200
HO-68 26 Apr 23:09:30 23:14:56 22° 272° (W) 23:20:09 435.675
ANTELSAT 26 Apr 23:11:03 23:13:35 15° 87° (E) 23:16:18 437.575/2403.000
CUBEBUG 2 26 Apr 23:11:59 23:16:09 40° 264° (W) 23:20:27 437.445
CINEMA 3 26 Apr 23:22:43 23:25:53 19° 271° (W) 23:29:03 145.822/145.860
UWE-3 26 Apr 23:35:54 23:39:45 28° 267° (W) 23:43:39 435.000/436.395/437.385
O/OREOS (USA 219) 26 Apr 23:37:28 23:42:03 81° 296° (WNW) 23:46:38 437.305
ESTCUBE 1 26 Apr 23:41:01 23:45:23 50° 71° (ENE) 23:49:46 437.505/2401.250
FUNcube-1 26 Apr 23:41:56 23:45:50 30° 266° (W) 23:49:46 145.935
UKube-1 26 Apr 23:44:53 23:49:00 42° 262° (W) 23:53:07 .
NANOSAT C BR1 26 Apr 23:46:37 23:48:58 15° 89° (E) 23:51:30 145.865
POPSAT HIP 1 26 Apr 23:50:11 23:52:49 16° 89° (E) 23:55:37 437.405
DELFI C3 26 Apr 23:50:36 23:53:19 17° 270° (W) 23:55:55 145.870
HUMSAT D 26 Apr 23:52:09 23:56:12 43° 262° (W) 00:00:20 437.325/437.525
SPROUT 26 Apr 23:57:59 00:01:03 20° 64° (ENE) 00:04:13 437.525
TIGRISAT 26 Apr 23:59:19 00:03:47 40° 97° (E) 00:08:12 435.000
RS-15 27 Apr 00:03:27 00:15:01 87° 55° (NE) 00:27:06 29.354- 29.394
UNISAT 6 27 Apr 00:04:10 00:08:44 46° 98° (E) 00:13:14 437.425
BUGSAT 1 27 Apr 00:07:51 00:10:30 17° 90° (E) 00:13:19 437.445
ZACube-1 27 Apr 00:09:09 00:12:06 17° 272° (W) 00:14:58 437.345
VELOX 1 27 Apr 00:15:57 00:20:07 41° 262° (W) 00:24:18 145.980
CUBEBUG 1 27 Apr 00:17:10 00:21:30 80° 257° (WSW) 00:25:50 437.445
DUCHIFAT 1 27 Apr 00:19:06 00:22:54 31° 95° (E) 00:26:44 145.980
POLYITAN 1 27 Apr 00:19:40 00:23:34 32° 96° (E) 00:27:29 437.675
Cosmos 2504 27 Apr 00:23:15 00:30:18 32° 64° (ENE) 00:37:02 435.465 / 435.565
Cosmos 2491 27 Apr 00:26:19 00:35:03 72° 282° (WNW) 00:43:52 435.465 / 435.565
50 SAT 27 Apr 00:30:18 00:33:42 25° 266° (W) 00:37:06 437.505
YUBILEINY 27 Apr 00:34:32 00:41:59 32° 277° (W) 00:49:11 435.215
AISAT 27 Apr 00:34:57 00:38:43 26° 266° (W) 00:42:26 437.250
QB50P1 27 Apr 00:37:14 00:41:25 48° 99° (E) 00:45:35 145.935-145.965
SWISSCUBE 27 Apr 00:39:44 00:40:42 11° 56° (NE) 00:41:53 437.505
DX 1 27 Apr 00:42:55 00:44:30 11° 273° (W) 00:45:51 434.975-435.025
ANTELSAT 27 Apr 00:46:14 00:50:58 71° 286° (WNW) 00:55:37 437.575/2403.000
AIST 1 27 Apr 00:47:29 00:50:37 21° 88° (E) 00:53:52
TISAT 1 27 Apr 00:56:51 01:00:58 60° 73° (ENE) 01:05:08 437.305
QB50P2 27 Apr 01:03:45 01:08:06 87° 286° (WNW) 01:12:24 145.880/145.840
ESTCUBE 1 27 Apr 01:19:19 01:22:35 19° 270° (W) 01:25:44 437.505/2401.250
O/OREOS (USA 219) 27 Apr 01:19:55 01:22:18 14° 317° (NW) 01:24:31 437.305
NANOSAT C BR1 27 Apr 01:21:01 01:25:16 60° 287° (WNW) 01:29:29 145.865
POPSAT HIP 1 27 Apr 01:24:52 01:29:06 54° 287° (WNW) 01:33:18 437.405
SPROUT 27 Apr 01:32:44 01:36:51 46° 261° (W) 01:41:00 437.525
TIGRISAT 27 Apr 01:36:24 01:40:21 26° 295° (WNW) 01:44:12 435.000
ITUPSAT 1 27 Apr 01:40:57 01:45:10 33° 67° (ENE) 01:49:28 437.325
UNISAT 6 27 Apr 01:41:29 01:45:15 23° 296° (WNW) 01:48:54 437.425
BUGSAT 1 27 Apr 01:42:17 01:46:18 49° 288° (WNW) 01:50:21 437.445
DUCHIFAT 1 27 Apr 01:54:58 01:58:40 29° 293° (WNW) 02:02:20 145.980
POLYITAN 1 27 Apr 01:55:43 01:59:25 27° 293° (WNW) 02:03:03 437.675
BEESAT 27 Apr 02:10:17 02:15:00 61° 72° (ENE) 02:19:45 436.000
SWISSCUBE 27 Apr 02:13:01 02:17:46 70° 73° (ENE) 02:22:33 437.505
QB50P1 27 Apr 02:13:51 02:16:59 19° 296° (WNW) 02:20:01 145.935-145.965
Cosmos 2504 27 Apr 02:16:24 02:24:20 60° 268° (W) 02:31:39 435.465 / 435.565
RS-15 27 Apr 02:16:50 02:26:23 30° 255° (WSW) 02:35:49 29.354- 29.394
AIST 1 27 Apr 02:24:01 02:28:04 38° 285° (WNW) 02:32:05
ANTELSAT 27 Apr 02:25:50 02:26:57 11° 304° (WNW) 02:27:50 437.575/2403.000
Cosmos 2491 27 Apr 02:28:08 02:33:56 18° 308° (NW) 02:39:23 435.465 / 435.565
Oscar 19 27 Apr 02:34:17 02:38:49 30° 94° (E) 02:43:24 437.125/150
TISAT 1 27 Apr 02:34:55 02:37:14 14° 272° (W) 02:39:22 437.305
STARS 27 Apr 02:36:05 02:38:37 16° 61° (ENE) 02:41:18 437.465
QB50P2 27 Apr 02:41:57 02:43:22 11° 301° (WNW) 02:44:35 145.880/145.840
CUSAT 1 27 Apr 02:53:37 02:57:51 16° 54° (NE) 03:02:44 437.405
GONETS M04 27 Apr 03:00:04 03:07:02 26° 59° (ENE) 03:14:12
ITAMSAT 1 27 Apr 03:12:33 03:16:25 21° 91° (E) 03:20:24 435.822/435.867
ITUPSAT 1 27 Apr 03:18:44 03:23:04 33° 265° (W) 03:27:22 437.325
KKS-1 27 Apr 03:19:14 03:23:35 58° 72° (ENE) 03:27:59 437.445
BEESAT 3 27 Apr 03:30:35 03:34:32 49° 121° (ESE) 03:38:32 437.485
BEESAT 2 27 Apr 03:33:55 03:37:51 44° 120° (ESE) 03:41:50 435.950
DANDE 27 Apr 03:41:31 03:47:22 26° 63° (ENE) 03:54:11 436.750
BEESAT 27 Apr 03:50:05 03:53:20 17° 271° (W) 03:56:24 436.000
Gurwin Techsat 1B 27 Apr 03:50:13 03:55:13 41° 97° (E) 04:00:14 435.225
SWISSCUBE 27 Apr 03:53:21 03:56:12 15° 272° (W) 03:58:53 437.505
MOZHAYETS 4 27 Apr 03:59:17 04:01:26 14° 59° (ENE) 04:03:47
STARS 27 Apr 04:10:14 04:14:36 68° 258° (WSW) 04:19:01 437.465
Oscar 19 27 Apr 04:13:25 04:18:18 40° 292° (WNW) 04:23:07 437.125/150
Cosmos 2504 27 Apr 04:13:57 04:16:00 11° 289° (WNW) 04:17:26 435.465 / 435.565
CUSAT 1 27 Apr 04:34:35 04:42:02 63° 74° (ENE) 04:50:20 437.405
Cosmos 2499 27 Apr 04:40:58 04:45:45 17° 53° (NE) 04:50:39 435.465 / 435.565
AIST 2 27 Apr 04:43:24 04:47:40 73° 123° (ESE) 04:51:58 435.215
ITAMSAT 1 27 Apr 04:51:15 04:56:19 56° 290° (WNW) 05:01:23 435.822/435.867
GONETS M04 27 Apr 04:56:14 05:05:09 83° 263° (W) 05:13:58
KKS-1 27 Apr 04:57:48 05:00:40 16° 271° (W) 05:03:23 437.445
AO-7 27 Apr 04:58:19 05:05:29 32° 94° (E) 05:12:48 29.400- 29.500
AUBIESAT-1 27 Apr 05:05:28 05:06:42 11° 50° (NE) 05:08:08 437.475
BEESAT 3 27 Apr 05:09:20 05:12:47 25° 321° (NW) 05:16:14 437.485
BEESAT 2 27 Apr 05:12:34 05:16:08 27° 320° (NW) 05:19:42 435.950
DANDE 27 Apr 05:23:56 05:31:21 84° 260° (W) 05:39:56 436.750
JAS-2 27 Apr 05:27:22 05:33:33 48° 96° (E) 05:39:02 435.910
HORYU 2 27 Apr 05:29:07 05:33:39 74° 102° (ESE) 05:38:07 437.375
Gurwin Techsat 1B 27 Apr 05:30:26 05:35:07 31° 295° (WNW) 05:39:43 435.225
MOZHAYETS 4 27 Apr 05:33:24 05:38:04 86° 257° (WSW) 05:42:45
CUBESAT XI-V 27 Apr 05:40:32 05:42:18 12° 59° (ENE) 05:44:16 437.345
M-CUBED/EXP-1 PRIME 27 Apr 05:55:43 05:59:56 31° 61° (ENE) 06:04:10 437.505
CUSAT 1 27 Apr 06:17:48 06:24:33 34° 271° (W) 06:31:42 437.405
AIST 2 27 Apr 06:23:27 06:26:44 20° 325° (NW) 06:29:58 435.215
STRAND 1 27 Apr 06:23:32 06:26:57 19° 60° (ENE) 06:30:31 437.568
Cosmos 2499 27 Apr 06:32:45 06:40:39 78° 79° (E) 06:47:58 435.465 / 435.565
AUBIESAT-1 27 Apr 06:35:57 06:40:41 62° 68° (ENE) 06:45:24 437.475
AO-7 27 Apr 06:50:40 06:58:55 66° 294° (WNW) 07:07:07 29.400- 29.500
GONETS M04 27 Apr 06:54:55 07:00:46 19° 284° (WNW) 07:06:10
PRISM 27 Apr 07:05:28 07:09:27 46° 71° (ENE) 07:13:27 437.425
HORYU 2 27 Apr 07:07:10 07:09:47 15° 300° (WNW) 07:12:14 437.375
DANDE 27 Apr 07:08:40 07:14:02 20° 275° (W) 07:19:29 436.750
JAS-2 27 Apr 07:12:47 07:18:26 32° 299° (WNW) 07:23:26 435.910
CUBESAT XI-V 27 Apr 07:14:28 07:19:06 87° 82° (E) 07:23:45 437.345
MOZHAYETS 4 27 Apr 07:15:20 07:16:07 10° 276° (W) 07:16:37
M-CUBED/EXP-1 PRIME 27 Apr 07:30:07 07:34:39 39° 258° (WSW) 07:39:10 437.505
PCSat 27 Apr 07:46:38 07:48:45 13° 104° (ESE) 07:51:10 145.827
CUTE-I 27 Apr 07:52:45 07:57:57 52° 99° (E) 08:03:09 437.470
STRAND 1 27 Apr 08:00:36 08:05:41 70° 257° (WSW) 08:10:48 437.568
Cubesat XI-IV 27 Apr 08:02:51 08:08:09 64° 101° (ESE) 08:13:27 437.490
O/OREOS (USA 219) 27 Apr 08:05:36 08:09:50 39° 57° (ENE) 08:14:03 437.305
AUBIESAT-1 27 Apr 08:12:23 08:15:50 19° 265° (W) 08:19:08 437.475
Cosmos 2499 27 Apr 08:27:13 08:32:54 22° 280° (W) 08:38:05 435.465 / 435.565
Cosmos 2491 27 Apr 08:37:38 08:42:49 17° 51° (NE) 08:48:25 435.465 / 435.565
PRISM 27 Apr 08:42:15 08:45:11 18° 269° (W) 08:48:00 437.425
AO-7 27 Apr 08:44:51 08:50:21 19° 316° (NW) 08:55:36 29.400- 29.500
HO-68 27 Apr 08:46:47 08:49:02 12° 81° (E) 08:51:48 435.675
CUBESAT XI-V 27 Apr 08:55:47 08:57:19 11° 275° (W) 08:58:34 437.345
BRITE-PL 27 Apr 08:57:32 09:01:22 21° 90° (E) 09:05:30 437.365/2234.400
DOVE 4 27 Apr 09:06:23 09:07:58 12° 84° (E) 09:09:53 437.250
PCSat 27 Apr 09:26:00 09:31:24 80° 122° (ESE) 09:36:53 145.827
CUTE-I 27 Apr 09:33:25 09:37:46 25° 298° (WNW) 09:42:00 437.470
CINEMA 3 27 Apr 09:37:55 09:39:33 12° 84° (E) 09:41:29 145.822/145.860
Cubesat XI-IV 27 Apr 09:43:51 09:47:51 21° 300° (WNW) 09:51:43 437.490
O/OREOS (USA 219) 27 Apr 09:45:22 09:49:05 25° 256° (WSW) 09:52:43 437.305
COMPASS 1 27 Apr 09:46:32 09:49:07 16° 89° (E) 09:51:51 437.405
YUBILEINY 27 Apr 09:50:30 09:54:18 14° 73° (ENE) 09:58:41 435.215
BEESAT 3 27 Apr 10:09:40 10:12:09 15° 31° (NNE) 10:14:42 437.485
ANTELSAT 27 Apr 10:12:46 10:15:58 19° 62° (ENE) 10:19:21 437.575/2403.000
BEESAT 2 27 Apr 10:13:25 10:15:48 15° 30° (NNE) 10:18:14 435.950
GOMX 1 27 Apr 10:13:28 10:18:35 66° 101° (E) 10:23:58 467.674
Oscar 11 27 Apr 10:13:40 10:15:44 13° 87° (E) 10:18:01 145.826/435.025
SEEDS 27 Apr 10:13:53 10:17:51 37° 97° (E) 10:21:48 437.485
CANX-2 27 Apr 10:25:11 10:29:28 65° 101° (E) 10:33:42 2200.000
QB50P2 27 Apr 10:26:28 10:28:12 13° 60° (ENE) 10:30:07 145.880/145.840
AAUSAT CUBESAT 2 27 Apr 10:26:43 10:30:36 36° 96° (E) 10:34:28 437.432
HO-68 27 Apr 10:31:14 10:38:24 65° 103° (ESE) 10:45:31 435.675
Cosmos 2491 27 Apr 10:33:01 10:41:51 68° 77° (ENE) 10:50:40 435.465 / 435.565
CUTE 1.7 + AOD 2 27 Apr 10:34:01 10:38:20 74° 101° (ESE) 10:42:35 437.475
BRITE-PL 27 Apr 10:35:13 10:40:13 59° 287° (WNW) 10:45:33 437.365/2234.400
DOVE 4 27 Apr 10:41:25 10:46:33 81° 101° (E) 10:51:53 437.250
NANOSAT C BR1 27 Apr 10:42:14 10:44:55 17° 63° (ENE) 10:47:45 145.865
POPSAT HIP 1 27 Apr 10:46:02 10:48:56 19° 63° (ENE) 10:51:56 437.405
DX 1 27 Apr 10:51:19 10:52:16 11° 86° (E) 10:53:29 434.975-435.025
CUBEBUG 2 27 Apr 10:59:54 11:04:19 37° 96° (E) 11:08:45 437.445
TIGRISAT 27 Apr 11:00:39 11:05:02 49° 71° (ENE) 11:09:34 435.000
BUGSAT 1 27 Apr 11:01:11 11:03:51 18° 64° (ENE) 11:06:39 437.445
UNISAT 6 27 Apr 11:05:42 11:10:11 57° 72° (ENE) 11:14:47 437.425
PCSat 27 Apr 11:11:08 11:15:30 23° 323° (NW) 11:19:48 145.827
CINEMA 3 27 Apr 11:12:32 11:17:34 85° 105° (ESE) 11:22:38 145.822/145.860
DUCHIFAT 1 27 Apr 11:14:20 11:18:06 33° 68° (ENE) 11:21:56 145.980
POLYITAN 1 27 Apr 11:15:31 11:19:22 36° 69° (ENE) 11:23:18 437.675
COMPASS 1 27 Apr 11:21:04 11:25:11 52° 288° (WNW) 11:29:15 437.405
UWE-3 27 Apr 11:22:06 11:26:41 49° 99° (E) 11:31:14 435.000/436.395/437.385
AIST 2 27 Apr 11:24:42 11:27:56 21° 35° (NE) 11:31:12 435.215
DELFI C3 27 Apr 11:25:29 11:29:29 55° 100° (E) 11:33:26 145.870
FUNcube-1 27 Apr 11:26:50 11:31:15 43° 98° (E) 11:35:37 145.935
UKube-1 27 Apr 11:29:42 11:33:17 25° 94° (E) 11:36:55 .
QB50P1 27 Apr 11:32:40 11:36:46 52° 72° (ENE) 11:40:55 145.935-145.965
HUMSAT D 27 Apr 11:33:39 11:37:15 25° 93° (E) 11:40:53 437.325/437.525
YUBILEINY 27 Apr 11:40:54 11:49:35 67° 94° (E) 11:58:19 435.215
BEESAT 3 27 Apr 11:46:45 11:50:53 77° 52° (NE) 11:54:57 437.485
ANTELSAT 27 Apr 11:47:52 11:52:22 57° 260° (W) 11:57:00 437.575/2403.000
Oscar 11 27 Apr 11:48:07 11:52:28 67° 287° (WNW) 11:56:46 145.826/435.025
SEEDS 27 Apr 11:50:04 11:53:29 23° 294° (WNW) 11:56:48 437.485
BEESAT 2 27 Apr 11:50:32 11:54:41 71° 51° (NE) 11:58:46 435.950
GOMX 1 27 Apr 11:52:32 11:56:20 21° 297° (WNW) 12:00:08 467.674
ZACube-1 27 Apr 11:52:53 11:57:32 80° 103° (ESE) 12:02:07 437.345
QB50P2 27 Apr 11:59:19 12:03:32 80° 256° (WSW) 12:07:50 145.880/145.840
CANX-2 27 Apr 12:02:25 12:04:56 15° 298° (WNW) 12:07:19 2200.000
AAUSAT CUBESAT 2 27 Apr 12:02:41 12:06:05 24° 294° (WNW) 12:09:22 437.432
VELOX 1 27 Apr 12:03:33 12:07:25 29° 95° (E) 12:11:20 145.980
50 SAT 27 Apr 12:04:02 12:07:40 31° 96° (E) 12:11:16 437.505
CUBEBUG 1 27 Apr 12:04:21 12:06:54 15° 89° (E) 12:09:36 437.445
ISS 27 Apr 12:10:27 12:13:00 22° 139° (SE) 12:15:36 145.825
CUTE 1.7 + AOD 2 27 Apr 12:11:31 12:13:44 14° 299° (WNW) 12:15:47 437.475
NANOSAT C BR1 27 Apr 12:16:16 12:20:24 54° 260° (W) 12:24:34 145.865
HO-68 27 Apr 12:19:35 12:25:43 31° 302° (WNW) 12:31:41 435.675
POPSAT HIP 1 27 Apr 12:20:23 12:24:30 49° 261° (W) 12:28:38 437.405
DOVE 4 27 Apr 12:20:30 12:23:47 17° 299° (WNW) 12:26:59 437.250
AISAT 27 Apr 12:21:55 12:26:14 46° 99° (E) 12:30:33 437.250
DX 1 27 Apr 12:24:49 12:29:13 84° 283° (WNW) 12:33:35 434.975-435.025
SO-50 27 Apr 12:25:09 12:29:43 58° 122° (ESE) 12:34:29 436.795
AIST 1 27 Apr 12:27:45 12:32:00 67° 79° (E) 12:36:16
Cosmos 2491 27 Apr 12:30:44 12:38:08 30° 277° (W) 12:45:17 435.465 / 435.565
BUGSAT 1 27 Apr 12:35:09 12:39:02 46° 261° (W) 12:42:57 437.445
CUBEBUG 2 27 Apr 12:36:45 12:40:54 29° 294° (WNW) 12:44:59 437.445
TIGRISAT 27 Apr 12:38:42 12:42:07 20° 270° (W) 12:45:29 435.000
UNISAT 6 27 Apr 12:44:15 12:47:24 18° 271° (W) 12:50:27 437.425
DUCHIFAT 1 27 Apr 12:50:28 12:53:59 25° 266° (W) 12:57:29 145.980
CINEMA 3 27 Apr 12:51:13 12:54:10 15° 300° (WNW) 12:56:57 145.822/145.860
POLYITAN 1 27 Apr 12:51:56 12:55:24 24° 267° (W) 12:58:50 437.675
UWE-3 27 Apr 12:59:15 13:02:56 22° 296° (WNW) 13:06:28 435.000/436.395/437.385
DELFI C3 27 Apr 13:01:45 13:04:15 16° 297° (WNW) 13:06:36 145.870
AIST 2 27 Apr 13:02:44 13:06:59 70° 236° (SW) 13:11:08 435.215
FUNcube-1 27 Apr 13:03:37 13:07:21 24° 295° (WNW) 13:10:58 145.935
Cosmos 2504 27 Apr 13:05:18 13:12:01 26° 81° (E) 13:18:55 435.465 / 435.565
UKube-1 27 Apr 13:05:33 13:09:31 35° 292° (WNW) 13:13:27 .
ESTCUBE 1 27 Apr 13:07:24 13:11:54 75° 103° (ESE) 13:16:23 437.505/2401.250
HUMSAT D 27 Apr 13:09:07 13:13:06 35° 291° (WNW) 13:17:00 437.325/437.525
QB50P1 27 Apr 13:10:17 13:13:01 16° 271° (W) 13:15:37 145.935-145.965
SPROUT 27 Apr 13:16:46 13:20:19 25° 93° (E) 13:23:56 437.525
BEESAT 3 27 Apr 13:26:28 13:28:22 13° 249° (WSW) 13:30:04 437.485
BEESAT 2 27 Apr 13:30:03 13:32:18 14° 249° (WSW) 13:34:23 435.950
ZACube-1 27 Apr 13:30:46 13:33:20 15° 300° (WNW) 13:35:43 437.345
Gurwin Techsat 1B 27 Apr 13:37:30 13:40:11 14° 56° (ENE) 13:43:04 435.225
50 SAT 27 Apr 13:38:59 13:42:22 25° 293° (WNW) 13:45:40 437.505
CUBEBUG 1 27 Apr 13:39:23 13:43:42 59° 288° (WNW) 13:47:59 437.445
YUBILEINY 27 Apr 13:39:26 13:47:12 32° 297° (WNW) 13:54:48 435.215
VELOX 1 27 Apr 13:40:02 13:43:59 32° 293° (WNW) 13:47:55 145.980
ISS 27 Apr 13:45:52 13:49:07 71° 337° (NNW) 13:52:23 145.825
Oscar 19 27 Apr 13:53:46 13:58:49 57° 71° (ENE) 14:03:56 437.125/150
AISAT 27 Apr 13:59:08 14:02:34 22° 296° (WNW) 14:05:55 437.250
DX 1 27 Apr 14:03:27 14:04:49 11° 302° (WNW) 14:05:59 434.975-435.025
SO-50 27 Apr 14:06:30 14:10:37 28° 323° (NW) 14:14:49 436.795
AIST 1 27 Apr 14:07:20 14:09:09 12° 276° (W) 14:10:46
BEESAT 27 Apr 14:09:37 14:11:29 12° 86° (E) 14:13:37 436.000
SWISSCUBE 27 Apr 14:12:00 14:14:28 14° 87° (E) 14:17:09 437.505
AO-7 27 Apr 14:12:30 14:17:00 17° 41° (NE) 14:21:49 29.400- 29.500
TISAT 1 27 Apr 14:14:04 14:18:21 75° 102° (ESE) 14:22:37 437.305
RS-15 27 Apr 14:31:20 14:41:01 41° 110° (ESE) 14:51:06 29.354- 29.394
ITAMSAT 1 27 Apr 14:33:04 14:37:55 43° 68° (ENE) 14:42:50 435.822/435.867
ESTCUBE 1 27 Apr 14:45:44 14:48:16 15° 300° (WNW) 14:50:39 437.505/2401.250
SPROUT 27 Apr 14:52:32 14:56:31 36° 291° (WNW) 15:00:27 437.525
Cosmos 2504 27 Apr 14:55:46 15:04:41 79° 280° (W) 15:13:25 435.465 / 435.565
HORYU 2 27 Apr 14:56:24 14:58:27 13° 59° (ENE) 15:00:40 437.375
Gurwin Techsat 1B 27 Apr 15:14:07 15:19:26 83° 74° (ENE) 15:24:48 435.225
ITUPSAT 1 27 Apr 15:15:49 15:20:28 51° 99° (E) 15:25:07 437.325
ISS 27 Apr 15:22:47 15:25:48 33° 356° (N) 15:28:50 145.825
Oscar 19 27 Apr 15:34:41 15:38:36 21° 270° (W) 15:42:25 437.125/150
JAS-2 27 Apr 15:40:45 15:47:39 37° 63° (ENE) 15:54:19 435.910
BEESAT 27 Apr 15:45:17 15:50:05 83° 285° (WNW) 15:54:50 436.000
SWISSCUBE 27 Apr 15:48:11 15:52:57 73° 286° (WNW) 15:57:41 437.505
SO-50 27 Apr 15:51:21 15:52:49 11° 347° (NNW) 15:54:14 436.795
TISAT 1 27 Apr 15:51:28 15:53:38 13° 299° (WNW) 15:55:37 437.305
STARS 27 Apr 15:57:58 16:01:02 18° 90° (E) 16:04:13 437.465
AO-7 27 Apr 16:00:12 16:08:11 56° 63° (ENE) 16:16:15 29.400- 29.500
GONETS M04 27 Apr 16:06:32 16:12:59 25° 80° (E) 16:19:47
ITAMSAT 1 27 Apr 16:13:12 16:17:38 28° 266° (W) 16:22:00 435.822/435.867
PCSat 27 Apr 16:28:12 16:32:41 26° 39° (NE) 16:37:13 145.827
HORYU 2 27 Apr 16:29:59 16:34:30 85° 257° (WSW) 16:39:03 437.375
VERMONT LUNAR 27 Apr 16:41:49 16:43:00 12° 155° (SSE) 16:44:16 437.305
RS-15 27 Apr 16:42:00 16:52:53 68° 315° (NW) 17:04:07 29.354- 29.394
KKS-1 27 Apr 16:43:50 16:48:22 80° 103° (ESE) 16:52:52 437.445
Cosmos 2504 27 Apr 16:53:17 16:59:44 21° 304° (NW) 17:05:43 435.465 / 435.565
ITUPSAT 1 27 Apr 16:54:24 16:58:04 22° 297° (WNW) 17:01:38 437.325
Gurwin Techsat 1B 27 Apr 16:57:11 17:00:12 15° 274° (W) 17:02:59 435.225
ISS 27 Apr 16:59:24 17:02:35 47° 16° (NNE) 17:05:46 145.825
Cosmos 2499 27 Apr 17:24:40 17:27:43 13° 74° (ENE) 17:31:21 435.465 / 435.565
JAS-2 27 Apr 17:24:41 17:32:26 59° 261° (W) 17:39:49 435.910
BEESAT 27 Apr 17:25:10 17:27:14 13° 303° (WNW) 17:29:07 436.000
MOZHAYETS 4 27 Apr 17:26:39 17:29:48 19° 89° (E) 17:33:04
SWISSCUBE 27 Apr 17:28:39 17:30:03 11° 304° (NW) 17:31:13 437.505
PHONESAT 2.4 27 Apr 17:31:34 17:32:35 11° 153° (SSE) 17:33:41 2401.200-2431.200
STARS 27 Apr 17:33:29 17:37:50 51° 289° (WNW) 17:42:08 437.465
SO-50 27 Apr 17:34:31 17:35:35 11° 11° (NNE) 17:36:44 436.795
CUTE-I 27 Apr 17:39:52 17:43:24 19° 59° (ENE) 17:47:04 437.470
CUSAT 1 27 Apr 17:47:08 17:50:52 42° 92° (E) 17:55:51 437.405
Cubesat XI-IV 27 Apr 17:49:36 17:53:35 23° 61° (ENE) 17:57:41 437.490
AO-7 27 Apr 17:53:44 18:01:21 38° 264° (W) 18:08:54 29.400- 29.500
GONETS M04 27 Apr 18:00:08 18:08:57 81° 281° (W) 18:17:51
PCSat 27 Apr 18:11:13 18:16:38 70° 241° (WSW) 18:22:02 145.827
VERMONT LUNAR 27 Apr 18:16:59 18:19:49 25° 171° (S) 18:22:40 437.305
KKS-1 27 Apr 18:22:05 18:24:27 14° 301° (WNW) 18:26:40 437.445
ISS 27 Apr 18:35:50 18:38:56 40° 215° (SW) 18:42:00 145.825
DANDE 27 Apr 18:40:49 18:44:29 77° 283° (WNW) 18:49:30 436.750
RS-15 27 Apr 18:57:59 19:07:46 34° 345° (NNW) 19:17:51 29.354- 29.394
MOZHAYETS 4 27 Apr 19:02:55 19:07:25 52° 288° (WNW) 19:11:51
PHONESAT 2.4 27 Apr 19:07:07 19:10:07 25° 169° (S) 19:13:09 2401.200-2431.200
CUBESAT XI-V 27 Apr 19:09:16 19:12:19 18° 89° (E) 19:15:31 437.345
Cosmos 2499 27 Apr 19:10:46 19:19:24 61° 92° (E) 19:27:46 435.465 / 435.565
M-CUBED/EXP-1 PRIME 27 Apr 19:11:17 19:12:48 12° 91° (E) 19:14:28 437.505
SO-50 27 Apr 19:13:50 19:17:53 25° 35° (NE) 19:22:00 436.795
JAS-2 27 Apr 19:16:16 19:19:06 12° 281° (WNW) 19:21:17 435.910
CUTE-I 27 Apr 19:17:38 19:22:57 75° 256° (WSW) 19:28:18 437.470
HO-68 27 Apr 19:18:56 19:22:54 16° 48° (NE) 19:27:09 435.675
Cubesat XI-IV 27 Apr 19:28:03 19:33:19 61° 259° (WSW) 19:38:36 437.490
CUSAT 1 27 Apr 19:30:38 19:34:04 22° 301° (WNW) 19:38:12 437.405
AUBIESAT-1 27 Apr 19:50:05 19:53:35 27° 99° (E) 19:56:53 437.475
GOMX 1 27 Apr 19:50:30 19:51:54 12° 57° (ENE) 19:53:32 467.674
VERMONT LUNAR 27 Apr 19:53:55 19:56:48 26° 188° (S) 19:59:40 437.305
PCSat 27 Apr 19:57:59 19:59:13 11° 257° (WSW) 20:00:05 145.827
GONETS M04 27 Apr 20:01:12 20:07:33 21° 306° (NW) 20:13:38
STRAND 1 27 Apr 20:08:26 20:12:57 32° 95° (E) 20:17:31 437.568
BRITE-PL 27 Apr 20:12:08 20:15:35 26° 66° (ENE) 20:19:16 437.365/2234.400
DOVE 4 27 Apr 20:15:12 20:17:27 14° 59° (ENE) 20:19:55 437.250
PRISM 27 Apr 20:20:16 20:24:16 50° 100° (E) 20:28:15 437.425
COMPASS 1 27 Apr 20:40:51 20:43:39 18° 64° (ENE) 20:46:34 437.405
CINEMA 3 27 Apr 20:42:41 20:45:01 14° 59° (ENE) 20:47:35 145.822/145.860
M-CUBED/EXP-1 PRIME 27 Apr 20:44:06 20:48:21 69° 292° (WNW) 20:52:12 437.505
PHONESAT 2.4 27 Apr 20:44:44 20:47:52 28° 186° (S) 20:51:00 2401.200-2431.200
CUBESAT XI-V 27 Apr 20:45:39 20:50:11 55° 288° (WNW) 20:54:41 437.345
SO-50 27 Apr 20:53:59 20:58:57 74° 236° (WSW) 21:03:52 436.795
HO-68 27 Apr 21:02:21 21:09:26 65° 68° (ENE) 21:16:35 435.675
CUTE-I 27 Apr 21:03:06 21:04:06 10° 277° (W) 21:04:45 437.470
Cosmos 2499 27 Apr 21:05:02 21:13:04 36° 294° (WNW) 21:20:41 435.465 / 435.565
SEEDS 27 Apr 21:08:38 21:12:35 38° 70° (ENE) 21:16:36 437.485
Oscar 11 27 Apr 21:11:18 21:14:00 17° 62° (ENE) 21:16:50 145.826/435.025
RS-15 27 Apr 21:14:05 21:24:10 36° 19° (NNE) 21:34:43 29.354- 29.394
ZACube-1 27 Apr 21:18:35 21:20:10 12° 58° (ENE) 21:21:57 437.345
AAUSAT CUBESAT 2 27 Apr 21:20:16 21:24:07 36° 69° (ENE) 21:28:02 437.432
CANX-2 27 Apr 21:20:38 21:24:55 67° 74° (ENE) 21:29:13 2200.000
AUBIESAT-1 27 Apr 21:24:43 21:28:25 30° 299° (WNW) 21:31:49 437.475
GOMX 1 27 Apr 21:25:04 21:29:19 89° 64° (ENE) 21:33:52 467.674
CUTE 1.7 + AOD 2 27 Apr 21:29:23 21:33:41 75° 76° (ENE) 21:38:01 437.475
VERMONT LUNAR 27 Apr 21:32:00 21:33:38 13° 203° (SSW) 21:35:11 437.305
Cosmos 2491 27 Apr 21:46:25 21:50:33 15° 74° (ENE) 21:55:15 435.465 / 435.565
STRAND 1 27 Apr 21:47:33 21:52:14 37° 293° (WNW) 21:56:52 437.568
YUBILEINY 27 Apr 21:47:39 21:55:40 39° 67° (ENE) 22:03:43 435.215
DX 1 27 Apr 21:49:10 21:51:38 15° 61° (ENE) 21:54:14 434.975-435.025
BRITE-PL 27 Apr 21:50:16 21:54:05 32° 266° (W) 21:58:01 437.365/2234.400
DOVE 4 27 Apr 21:50:18 21:54:36 76° 258° (WSW) 21:59:12 437.250
PRISM 27 Apr 21:56:36 21:59:25 18° 297° (WNW) 22:02:05 437.425
CUBEBUG 2 27 Apr 22:00:56 22:05:05 41° 70° (ENE) 22:09:26 437.445
COMPASS 1 27 Apr 22:14:50 22:19:00 52° 261° (W) 22:23:11 437.405
DELFI C3 27 Apr 22:15:36 22:19:33 50° 72° (ENE) 22:23:32 145.870
CINEMA 3 27 Apr 22:17:13 22:21:37 77° 258° (WSW) 22:26:16 145.822/145.860
O/OREOS (USA 219) 27 Apr 22:21:15 22:24:57 25° 104° (ESE) 22:28:45 437.305
UWE-3 27 Apr 22:21:55 22:26:14 55° 72° (ENE) 22:30:43 435.000/436.395/437.385
PHONESAT 2.4 27 Apr 22:23:17 22:25:30 16° 202° (SSW) 22:27:41 2401.200-2431.200
FUNcube-1 27 Apr 22:25:17 22:29:28 47° 71° (ENE) 22:33:50 145.935
UKube-1 27 Apr 22:27:17 22:31:06 32° 67° (ENE) 22:34:58 .
HUMSAT D 27 Apr 22:28:21 22:31:54 27° 66° (ENE) 22:35:33 437.325/437.525
